Location: Unspecified
(42.3650°N, 71.1030°W)
Time: 17:23:43
(UTC+00:00)

S-56A Canister/Altair - Pass Details

Date: 30 June 2024
Orbit: 638 x 2487 km, 38.9° (Epoch: 20 July)

Event Time Altitude Azimuth Distance (km) Brightness Sun altitude
Rises 07:36:41 0° 271° (W) 5,500 11.5 -13.8°
Enters shadow 07:42:19 - 251° (WSW) 4,990 11.1 -13.2°
Exits shadow 07:58:40 - 190° (S) 6,008 11.6 -11.1°
Sets 07:59:35 0° 187° (S) 6,142 11.6 -11.0°
